Temperature
15 15 15 15 15 15 15 15 15 13 13 13 13 13 13 13 13 13 13 13 13 13 13 13 13 13 13 13 13 13 13 13 13 13 13 13 13 13
15 15 15 15 15 15 15 15 14 14 13 13 13 13 13 13 13 13 13 13 12 12 12 12 12 12 12 12 12 12 12 12 12 12 12 12 12 12
15 15 15 15 15 15 15 15 14 14 14 13 13 13 13 13 13 12 12 12 12 12 12 12 12 12 12 12 12 12 12 12 12 12 12 12 12 12
15 15 15 15 15 15 14 14 14 14 14 13 13 13 13 13 12 12 12 12 12 12 12 12 11 11 11 11 11 11 11 11 11 11 11 11 11 11
15 15 15 15 15 14 14 14 14 14 14 13 13 13 12 12 12 12 12 12 12 12 12 11 11 11 11 11 11 11 11 11 11 11 11 11 11 11
15 15 15 15 15 14 14 14 14 14 13 13 13 13 12 12 12 12 12 12 12 12 11 11 11 11 11 11 11 11 11 11 11 10 10 10 10 10
15 15 14 14 14 14 14 14 14 13 13 13 13 13 12 12 12 12 12 12 11 11 11 11 11 11 11 11 10 10 10 10 10 10 10 10 10 10
15 15 14 14 14 14 14 14 14 13 13 13 13 12 12 12 12 12 12 11 11 11 11 11 11 11 10 10 10 10 10 10 10 9 9 9 9 9
15 14 14 14 14 14 14 14 13 13 13 13 13 13 12 12 12 12 11 11 11 11 11 11 10 10 10 10 10 9 9 9 9 9 9 9 8 8
14 14 14 14 14 14 14 14 13 13 13 13 13 12 12 12 12 11 11 11 11 11 10 10 10 10 10 10 9 9 9 9 9 8 8 8 8 8
14 14 14 14 14 13 13 13 13 13 13 12 12 12 12 12 11 11 11 11 11 11 10 10 10 10 10 10 9 9 9 8 8 8 8 7 7 7
14 14 14 14 13 13 13 13 13 13 12 12 12 12 12 11 11 11 11 10 10 10 10 9 9 9 9 9 9 8 8 8 8 7 7 7 7 7
14 14 14 13 13 13 13 13 13 12 12 12 12 11 11 11 11 10 10 10 10 9 9 9 8 8 8 8 8 8 8 8 7 7 7 7 6 6
14 14 13 13 13 13 13 12 12 12 12 12 11 11 11 11 10 10 10 10 9 9 9 8 8 8 7 7 7 8 8 7 7 7 7 6 6 6
14 13 13 13 13 12 12 12 12 12 11 11 11 11 10 10 10 10 10 9 9 9 8 8 8 7 7 7 7 7 7 7 6 6 6 6 6 5
14 13 13 13 12 12 12 12 11 11 11 11 11 10 10 10 10 9 9 9 9 9 8 8 7 7 7 7 6 6 6 6 6 6 6 5 5 5
13 13 13 12 12 12 12 11 11 11 11 10 10 10 10 10 9 9 9 8 8 8 8 8 7 7 6 6 6 6 6 5 5 5 5 5 5 5
12 12 12 12 12 12 11 11 11 11 10 10 10 10 9 9 9 9 8 8 8 7 7 7 7 7 7 6 6 5 5 5 5 4 4 4 4 4
12 12 12 12 11 11 11 11 10 10 10 10 9 9 9 8 8 8 8 7 7 7 6 6 6 5 5 5 5 5 4 4 4 4 4 3 3 3
12 12 12 11 11 11 11 10 10 10 9 9 9 9 8 8 8 7 7 7 6 6 6 6 5 5 4 4 4 4 3 3 3 3 3 3 3 3
12 11 11 11 11 10 10 10 10 9 9 9 8 8 8 7 7 7 6 6 6 5 5 5 5 4 4 4 3 3 3 3 2 2 1 2 2 2
11 11 11 10 10 10 10 9 9 9 9 8 8 8 7 7 6 6 6 5 5 5 4 4 4 4 3 3 3 3 3 3 2 2 1 1 0 -0
11 11 10 10 10 9 9 9 9 8 8 8 7 7 7 6 6 5 5 5 4 4 4 4 3 3 3 2 2 2 2 2 2 2 1 1 0 0
Wind_Speed
5 5 4 3 3 3 3 4 5 3 1 2 2 3 4 5 7 8 9 11 13 14 14 15 16 16 16 16 16 16 16 16 16 16 15 15 15 15
4 6 5 3 4 3 3 3 3 4 2 1 1 2 3 4 6 7 7 9 10 11 12 12 12 13 13 13 13 13 13 13 13 13 13 13 13 13
5 6 5 4 4 4 4 4 4 4 4 1 2 2 3 3 4 6 6 6 7 8 9 9 10 10 10 10 10 10 11 11 11 12 12 12 12 13
4 5 4 4 5 4 4 4 3 3 5 3 2 2 2 2 3 3 5 5 5 6 6 7 8 8 8 8 8 9 9 10 10 10 10 11 11 12
4 5 4 5 4 3 4 4 3 4 4 4 1 2 2 2 3 3 4 5 5 5 5 6 7 7 7 7 6 6 7 7 8 8 9 10 10 11
4 4 4 5 5 4 4 4 4 5 4 4 2 2 2 2 2 2 3 4 4 5 5 5 5 6 6 6 5 5 5 5 6 7 8 8 9 10
3 3 3 5 6 5 4 4 5 4 3 3 2 2 2 2 1 1 1 3 3 3 3 4 4 5 6 6 5 5 4 5 6 7 8 8 9 9
4 3 2 4 5 6 7 7 6 5 4 3 1 1 1 1 1 0 0 2 3 3 2 3 3 3 5 6 5 5 5 6 7 7 7 8 8 9
4 3 3 3 4 4 5 6 4 5 6 5 4 3 2 3 1 0 0 1 2 3 1 2 3 3 5 6 6 5 6 7 7 8 8 8 8 9
4 5 5 3 4 5 4 3 2 1 2 3 3 3 3 3 3 2 2 1 2 2 1 1 3 3 5 7 7 6 6 7 8 9 9 9 9 9
2 3 5 4 6 7 6 4 1 1 1 2 2 1 0 1 3 2 1 1 2 3 1 1 2 3 3 3 7 7 7 7 9 9 9 9 10 10
1 2 5 6 6 8 6 5 3 2 0 2 2 2 2 2 1 1 2 1 1 2 2 1 2 2 3 3 4 7 7 7 9 9 10 10 11 8
3 2 2 6 6 7 6 5 5 3 1 1 0 2 2 2 2 1 2 2 2 3 3 2 1 1 1 3 4 5 6 6 7 8 10 11 10 8
4 3 3 5 6 5 4 4 5 3 2 1 0 1 2 2 2 2 1 3 4 4 4 2 2 2 2 3 4 4 5 6 5 6 9 10 10 11
4 5 5 5 4 3 3 4 4 2 2 1 1 2 2 2 1 2 3 2 3 5 6 4 3 3 3 4 4 4 4 4 5 5 5 6 7 7
3 3 4 3 2 2 1 1 2 2 3 2 2 2 2 1 1 1 2 2 2 4 5 6 5 3 3 5 5 5 4 4 4 5 5 6 8 9
5 3 2 1 1 0 0 0 0 1 1 1 1 1 1 2 2 2 1 1 1 3 5 5 5 4 4 4 4 5 5 5 5 5 4 6 6 8
7 3 3 3 3 3 2 1 1 1 2 2 1 1 2 2 3 2 1 1 3 4 4 4 4 4 4 3 4 5 5 5 5 5 4 5 7 7
5 4 4 4 3 3 3 3 2 2 2 2 2 2 2 2 2 2 2 2 3 4 4 3 2 2 4 7 5 4 4 5 5 5 5 5 7 8
3 4 4 4 4 4 3 3 2 1 1 1 2 1 1 1 2 2 2 3 4 4 4 3 3 3 4 6 6 5 6 5 4 6 6 5 6 10
4 4 4 4 3 3 3 3 3 2 2 2 2 2 1 1 2 2 3 4 3 3 4 5 5 6 4 2 4 5 5 7 7 6 6 6 7 6
4 4 4 4 4 4 3 3 3 2 2 2 2 2 2 2 2 3 3 3 3 3 4 4 4 3 2 3 6 7 6 6 9 12 11 10 6 7
4 4 4 3 4 3 3 4 4 3 3 3 2 2 2 2 3 3 3 3 3 3 4 4 4 3 3 4 6 7 8 8 6 6 7 13 15 17
Wind_Direction
84 84 80 68 76 88 113 131 136 129 28 339 358 353 28 46 48 52 52 52 54 54 55 56 57 58 59 59 57 55 52 50 49 47 45 44 42 40
84 82 75 70 71 75 94 100 112 133 140 298 302 321 17 45 45 52 50 50 52 54 56 57 58 58 58 58 56 54 51 49 46 44 42 39 37 33
80 87 80 76 76 68 78 87 94 111 117 20 358 3 23 31 35 43 43 46 48 50 52 52 53 54 55 56 54 51 49 47 44 41 37 34 31 28
98 95 88 85 76 70 79 84 87 96 120 115 7 8 11 2 14 19 29 31 34 36 42 43 43 45 46 49 51 49 46 44 41 37 32 28 24 22
118 115 111 101 89 82 84 87 87 85 88 113 78 1 0 4 20 13 18 12 16 19 27 33 37 36 35 36 37 36 34 34 33 30 25 20 17 14
115 120 122 124 128 117 102 101 102 91 83 91 79 15 356 348 31 15 1 354 356 13 20 23 20 18 15 12 12 12 13 15 15 13 9 7 6 6
107 105 117 129 136 133 127 129 118 106 96 91 77 29 356 354 335 322 354 338 340 2 3 360 2 356 347 345 348 353 356 355 353 354 354 354 355 356
128 116 102 105 113 113 116 128 135 133 138 129 130 160 267 269 293 354 1 9 334 332 11 338 3 334 327 327 333 345 345 340 340 342 343 344 344 343
150 146 134 124 115 107 98 93 93 121 142 150 157 196 212 223 179 69 225 208 254 294 26 320 331 320 321 324 327 332 331 331 334 333 333 333 333 333
159 160 155 160 156 139 122 95 61 41 127 136 165 196 200 192 177 182 196 223 299 323 63 295 319 312 323 325 333 339 335 333 333 329 325 323 323 324
168 167 165 169 171 152 134 132 104 342 52 131 158 161 19 185 149 99 62 48 337 314 318 209 303 314 317 324 339 348 343 337 333 330 325 324 322 323
168 187 182 178 173 160 153 154 167 235 265 43 35 9 8 6 23 144 171 166 241 300 294 205 299 340 328 310 326 332 334 327 327 326 326 324 323 325
179 198 209 183 173 168 166 173 191 189 169 146 13 350 2 358 351 328 169 167 190 245 260 181 244 272 258 296 308 312 317 317 320 323 325 323 321 319
191 201 199 173 169 168 172 183 175 148 128 113 61 314 308 302 307 321 262 217 217 239 264 203 208 228 249 284 291 302 310 311 313 318 318 317 314 311
191 180 171 160 155 162 170 166 155 143 137 145 236 268 272 281 341 1 352 341 313 292 291 268 228 235 222 246 269 282 298 300 306 308 309 306 299 304
177 156 145 135 140 139 110 129 147 166 168 197 239 268 296 325 323 301 308 321 327 315 322 302 274 237 250 255 256 273 276 280 295 297 296 296 300 299
146 114 100 102 123 101 72 68 125 137 181 227 235 281 308 318 311 314 310 318 297 300 311 321 318 287 255 249 267 274 278 281 283 291 299 297 289 300
139 155 180 185 193 197 196 210 212 216 223 219 225 245 266 279 295 309 311 295 291 293 296 302 323 335 331 300 244 262 281 283 291 294 287 293 295 297
154 179 191 197 202 200 200 205 220 230 218 203 223 245 259 275 289 299 306 306 299 297 299 306 320 325 317 309 297 269 273 293 301 299 289 280 286 292
178 188 199 203 204 205 208 216 225 220 204 211 223 237 244 257 278 290 291 289 294 300 308 314 304 286 275 281 286 293 293 281 295 299 295 290 283 291
196 202 204 202 203 203 204 203 200 201 204 206 216 226 233 239 266 280 285 292 295 300 300 297 290 297 293 304 302 298 292 295 292 288 293 298 304 302
194 200 206 204 201 200 198 195 198 204 207 214 228 235 237 236 250 264 273 281 282 282 287 294 310 322 318 297 295 297 300 304 310 306 297 287 289 293
203 203 204 204 204 198 198 199 202 213 215 218 226 235 237 249 256 259 266 270 280 290 299 307 316 311 295 284 289 295 298 304 308 309 299 305 301 296
Height
1569 1569 1570 1570 1570 1570 1571 1571 1571 1570 1571 1571 1570 1569 1568 1566 1565 1563 1561 1560 1558 1556 1554 1553 1551 1550 1549 1548 1547 1546 1545 1545 1544 1543 1542 1541 1541 1540
1570 1570 1570 1571 1571 1571 1571 1571 1572 1571 1571 1571 1571 1571 1570 1568 1567 1565 1564 1562 1560 1558 1557 1555 1553 1552 1551 1549 1549 1548 1547 1546 1545 1544 1543 1542 1541 1540
1571 1571 1571 1572 1572 1572 1572 1572 1572 1572 1571 1572 1572 1572 1571 1570 1568 1567 1565 1563 1562 1560 1558 1557 1555 1553 1552 1551 1550 1549 1548 1546 1545 1544 1543 1542 1541 1539
1571 1572 1572 1572 1572 1572 1572 1572 1573 1573 1572 1572 1572 1572 1571 1571 1570 1568 1567 1565 1563 1562 1560 1558 1556 1555 1553 1552 1550 1549 1548 1547 1545 1544 1543 1541 1540 1538
1572 1573 1573 1573 1573 1573 1573 1573 1573 1573 1573 1573 1573 1573 1572 1572 1570 1569 1568 1566 1564 1563 1561 1559 1557 1555 1554 1552 1551 1549 1548 1546 1545 1544 1542 1541 1539 1537
1573 1573 1573 1573 1573 1573 1574 1574 1574 1574 1574 1574 1573 1573 1572 1572 1571 1569 1568 1566 1565 1563 1562 1560 1558 1556 1554 1552 1551 1549 1547 1546 1544 1543 1541 1539 1538 1536
1573 1574 1574 1574 1574 1574 1574 1574 1574 1574 1574 1574 1573 1573 1572 1571 1570 1569 1568 1566 1564 1563 1561 1560 1558 1556 1554 1552 1550 1548 1547 1545 1543 1541 1540 1538 1536 1534
1574 1574 1574 1575 1575 1575 1575 1575 1575 1574 1574 1574 1573 1572 1572 1571 1570 1569 1567 1565 1564 1563 1561 1559 1557 1555 1553 1551 1549 1547 1545 1544 1542 1540 1538 1536 1534 1532
1574 1575 1575 1575 1575 1575 1575 1574 1574 1574 1574 1574 1573 1572 1571 1570 1569 1568 1566 1565 1563 1562 1560 1557 1556 1553 1552 1550 1548 1546 1544 1542 1540 1538 1536 1534 1532 1530
1574 1574 1575 1575 1575 1575 1574 1574 1574 1574 1573 1573 1572 1571 1571 1570 1568 1567 1565 1563 1562 1560 1559 1556 1554 1552 1550 1548 1546 1545 1543 1541 1538 1536 1534 1532 1530 1527
1573 1573 1574 1574 1574 1574 1574 1573 1573 1573 1572 1572 1571 1570 1569 1568 1567 1565 1564 1562 1559 1558 1557 1555 1552 1550 1548 1546 1545 1543 1541 1538 1536 1534 1531 1529 1527 1524
1571 1572 1572 1573 1573 1573 1572 1572 1571 1571 1571 1570 1570 1569 1568 1566 1565 1564 1562 1560 1558 1556 1554 1553 1550 1548 1545 1543 1542 1540 1538 1536 1533 1531 1528 1526 1523 1520
1569 1570 1571 1571 1571 1571 1571 1570 1570 1570 1569 1569 1568 1567 1566 1564 1563 1562 1560 1558 1556 1554 1553 1551 1548 1546 1544 1541 1538 1537 1535 1532 1529 1527 1524 1522 1519 1516
1567 1568 1568 1569 1569 1569 1569 1568 1568 1568 1567 1566 1565 1564 1563 1562 1561 1559 1558 1556 1554 1552 1550 1548 1546 1543 1541 1537 1535 1532 1531 1528 1525 1522 1520 1517 1514 1511
1565 1565 1566 1566 1566 1566 1566 1566 1566 1565 1564 1563 1562 1561 1560 1559 1558 1556 1554 1553 1551 1549 1547 1545 1543 1540 1538 1535 1531 1528 1526 1523 1521 1518 1515 1512 1509 1505
1562 1562 1563 1563 1563 1563 1563 1563 1563 1562 1562 1561 1559 1559 1557 1556 1554 1553 1551 1549 1547 1545 1544 1541 1539 1537 1533 1531 1528 1524 1522 1519 1516 1513 1510 1507 1504 1500
1559 1559 1559 1559 1559 1560 1560 1560 1560 1559 1558 1557 1556 1555 1554 1552 1551 1549 1547 1545 1543 1540 1539 1537 1535 1532 1530 1527 1523 1520 1517 1514 1511 1508 1504 1500 1498 1495
1555 1555 1555 1556 1556 1556 1556 1556 1556 1556 1555 1554 1553 1552 1550 1549 1547 1545 1544 1542 1539 1537 1535 1533 1530 1527 1524 1521 1520 1516 1513 1509 1506 1503 1499 1495 1490 1489
1551 1551 1552 1552 1552 1553 1553 1553 1552 1552 1552 1551 1549 1548 1547 1545 1543 1542 1540 1538 1535 1533 1531 1529 1526 1523 1519 1515 1514 1512 1508 1504 1501 1497 1494 1490 1485 1482
1547 1547 1548 1548 1549 1549 1549 1549 1549 1548 1548 1547 1545 1544 1543 1541 1540 1538 1536 1534 1532 1529 1527 1525 1522 1519 1516 1513 1508 1506 1504 1500 1496 1492 1488 1484 1480 1477
1543 1544 1544 1545 1545 1545 1545 1545 1545 1544 1543 1543 1541 1540 1539 1537 1535 1533 1532 1530 1528 1525 1522 1520 1518 1516 1512 1509 1504 1500 1498 1496 1492 1488 1483 1478 1473 1469
1539 1540 1540 1541 1541 1541 1541 1541 1540 1540 1539 1538 1537 1536 1534 1533 1531 1529 1527 1525 1523 1521 1518 1516 1513 1510 1507 1504 1499 1495 1492 1490 1487 1484 1480 1476 1471 1464
1536 1536 1536 1537 1537 1537 1537 1536 1536 1535 1534 1533 1532 1531 1529 1528 1526 1524 1523 1521 1519 1516 1514 1511 1508 1505 1502 1499 1495 1491 1487 1483 1480 1476 1474 1471 1468 1463